Theta_e
336 336 336 337 336 336 338 339 339 338 338 337 335 333 330 328 328 328 329 327 327 330 332 332 330 329 332 333 333 334 335 334 334 333 333 332 331 329 326 324 326 327 328 328 329 329 327 328 328 327 325 324 324 324 324 324 323 324 324 323 322 324 324 324 323 322 322 322 323 324 324 324 322 321 320 320 320 321 323 323 323 324 324 325 326
337 337 337 338 337 337 337 338 338 339 338 338 338 337 334 331 328 329 332 332 332 332 332 333 332 330 331 333 334 335 335 334 334 333 333 333 332 331 328 325 325 327 328 328 329 329 327 328 329 327 325 324 324 324 324 324 323 323 324 323 322 323 324 324 323 322 321 322 323 324 324 324 323 321 319 320 320 321 322 321 322 323 324 325 325
338 338 338 338 338 338 337 337 338 339 339 338 338 338 337 335 332 330 331 332 333 334 333 334 334 333 333 334 335 335 335 334 334 333 333 333 333 332 330 327 325 327 328 327 327 329 328 328 328 327 326 325 324 324 325 324 324 324 325 324 322 321 322 324 324 322 321 322 323 324 325 324 324 322 319 319 320 320 321 321 322 323 323 324 324
337 337 338 338 338 338 338 338 339 339 338 338 338 337 337 337 335 332 330 330 332 333 333 334 334 334 334 334 334 334 335 334 334 333 333 333 333 332 331 328 326 326 327 327 326 327 329 328 327 327 326 325 325 325 325 324 324 325 325 324 322 321 321 322 324 323 322 323 324 324 325 325 324 323 320 319 320 320 322 322 322 323 323 324 324
337 337 337 337 338 337 338 338 338 338 338 338 338 338 337 337 337 336 333 332 332 332 332 333 333 333 333 333 333 333 333 334 334 333 333 332 333 332 332 330 327 327 327 327 326 327 327 327 327 327 326 326 325 325 325 325 325 325 325 324 323 322 322 322 323 323 323 324 324 324 325 325 325 323 320 319 319 321 322 322 323 323 323 324 324
337 337 337 337 337 338 337 338 338 337 337 338 338 338 337 337 337 337 336 335 334 333 333 332 333 333 332 331 331 331 332 333 333 333 333 332 332 332 332 331 329 328 329 328 326 326 327 326 327 328 326 326 326 325 326 326 325 325 325 325 323 323 324 323 323 323 323 323 323 324 325 325 324 324 321 320 320 321 322 322 323 323 323 324 323
337 337 337 337 337 338 338 337 337 337 336 336 337 338 337 337 337 337 337 336 336 335 333 333 333 333 333 331 331 331 331 331 332 333 333 332 332 332 332 332 330 328 328 330 329 327 327 325 326 327 326 327 326 325 327 328 327 326 325 325 323 323 324 324 323 323 323 323 323 323 324 324 324 323 322 321 321 321 321 321 321 321 322 323 322
337 337 337 337 337 337 337 337 336 336 336 335 336 336 336 336 336 336 336 336 336 335 334 333 332 332 332 332 331 331 330 330 332 332 333 332 331 332 332 332 331 329 327 329 330 329 328 325 325 326 326 327 326 325 328 329 329 328 326 325 323 322 323 323 323 323 322 322 323 323 323 324 323 323 323 321 321 320 320 319 319 319 320 321 320
337 337 337 337 337 336 336 336 335 336 336 335 335 335 335 335 335 336 335 335 335 335 335 334 332 331 331 332 332 331 331 331 332 332 332 332 332 332 332 332 331 330 328 327 328 329 329 326 325 325 326 327 325 325 329 330 330 330 327 325 322 322 322 322 323 323 322 321 322 323 323 323 323 323 323 322 321 321 321 319 318 317 317 318 318
337 337 337 337 337 336 336 335 335 335 335 335 335 334 334 334 335 335 334 334 335 335 335 335 334 333 333 333 333 331 331 331 332 332 332 332 332 331 331 331 331 331 329 328 327 328 329 329 326 326 326 326 324 324 328 330 331 331 329 326 322 322 323 322 321 323 322 320 322 323 322 322 323 323 323 323 322 322 322 320 319 318 317 318 319
337 336 336 336 336 336 335 335 335 335 335 334 334 334 333 333 333 334 333 334 334 334 335 335 334 334 334 334 334 333 331 331 331 331 331 331 331 331 331 331 331 331 330 328 327 326 328 329 328 327 327 326 323 323 327 330 331 331 331 329 325 324 325 323 321 323 322 320 321 323 322 321 322 323 323 322 323 322 322 322 321 320 320 320 320
337 336 335 336 336 335 335 334 335 335 334 334 334 333 333 333 333 333 333 333 333 333 334 334 334 333 333 333 334 334 333 332 331 331 331 331 331 331 331 331 330 331 330 329 328 327 327 328 327 328 329 328 324 321 324 329 330 330 330 330 328 326 326 325 323 325 323 320 321 323 322 321 321 323 323 322 323 322 322 322 322 322 321 321 321
336 336 335 335 335 334 334 334 335 335 334 334 333 333 334 333 333 333 333 333 332 333 333 333 333 333 334 333 333 333 333 333 333 333 332 332 331 331 331 331 331 330 330 329 328 328 327 327 327 327 329 330 327 321 322 327 329 330 330 329 329 328 328 327 325 327 324 319 321 322 320 320 321 322 322 323 323 323 323 323 322 322 321 321 321
336 335 335 334 334 334 334 334 334 334 334 333 332 334 335 334 333 333 333 332 332 332 332 332 333 334 334 333 332 333 333 332 333 333 333 333 332 331 331 331 331 330 330 330 329 328 327 327 327 326 327 329 329 325 323 325 328 329 329 329 329 329 329 328 326 327 325 319 320 320 319 320 321 321 322 323 324 323 323 323 322 320 318 318 319
335 334 334 333 333 334 334 333 334 334 333 333 332 334 334 333 333 333 333 333 332 331 331 331 332 333 333 332 332 332 332 333 333 333 333 333 332 332 331 331 331 331 330 330 329 329 328 327 327 326 327 328 328 328 326 326 328 328 328 328 329 329 329 329 327 327 327 322 318 318 319 321 321 321 322 323 324 324 323 322 321 319 318 317 318
332 332 332 332 334 334 334 333 333 333 333 333 333 333 333 333 333 333 333 333 333 332 331 331 331 332 333 333 332 331 331 332 333 333 331 331 332 332 332 331 331 331 330 330 330 329 328 328 329 328 328 328 327 328 327 326 327 328 328 327 328 329 329 330 329 327 328 326 320 316 318 320 321 322 323 324 324 324 323 322 320 319 319 318 318
332 332 332 333 333 333 334 333 333 333 333 333 333 333 333 333 333 332 332 332 333 332 332 331 331 330 331 332 332 332 331 331 332 332 331 331 331 331 331 331 330 331 331 330 330 330 329 329 330 329 329 328 327 327 326 324 325 327 327 327 328 328 329 330 330 328 328 328 323 318 318 320 321 322 323 323 323 324 323 322 320 319 319 318 318
332 332 332 333 333 333 332 332 332 332 332 331 332 332 331 331 331 331 332 332 332 332 333 332 331 331 330 330 332 332 331 332 332 331 331 332 332 331 331 331 331 331 331 331 330 330 330 330 330 330 329 329 327 326 326 324 323 324 326 327 327 327 329 329 329 328 328 328 326 321 317 318 321 322 323 323 323 324 323 321 320 320 320 319 319
331 331 331 331 331 332 331 331 331 331 331 331 330 330 330 330 331 331 331 331 332 332 333 333 332 332 332 331 331 331 331 332 332 331 331 331 332 332 332 332 332 332 332 332 331 331 330 330 330 330 330 329 327 325 326 325 321 319 321 325 326 326 327 328 329 329 328 328 328 325 319 317 321 322 322 323 322 323 323 321 321 321 320 320 319
328 328 328 329 329 330 330 330 331 331 331 330 330 329 329 330 331 331 331 331 331 332 332 331 331 332 333 332 332 332 331 331 331 331 331 331 331 331 332 332 331 331 332 332 332 331 331 330 330 330 330 329 328 327 327 326 325 320 316 319 324 325 326 327 328 328 328 328 329 329 323 318 320 323 322 322 322 323 323 322 322 321 321 321 320
325 325 326 326 327 329 329 329 330 330 330 330 329 329 329 329 329 329 329 330 330 331 330 330 331 331 331 332 332 332 331 331 331 331 331 331 330 330 331 332 331 331 331 331 332 332 331 331 331 331 330 330 330 330 328 327 328 326 321 317 320 323 325 326 327 328 327 327 328 330 327 320 320 322 322 322 322 322 322 322 322 322 321 321 320
323 324 324 324 326 327 327 327 327 327 327 327 327 327 329 329 328 328 329 329 329 329 329 329 330 330 329 330 331 331 331 331 331 331 331 331 330 329 330 331 331 331 332 331 331 331 331 332 331 331 330 330 330 330 330 329 329 329 327 323 321 322 324 325 326 327 326 326 327 329 328 323 320 322 323 322 322 321 321 321 321 322 322 321 321
321 321 322 323 324 324 324 324 324 324 324 323 323 324 326 327 327 327 328 329 328 328 327 328 328 328 328 328 329 330 330 330 330 330 330 330 330 329 329 330 330 330 331 331 330 330 330 331 331 331 331 331 331 330 331 332 331 330 329 327 325 324 324 324 325 326 326 326 326 327 328 326 322 322 323 323 323 321 320 320 321 321 322 321 320
319 319 319 320 321 321 322 322 321 321 321 321 321 322 323 324 325 326 327 328 327 326 326 327 328 328 327 327 327 328 328 329 329 329 329 329 330 329 329 330 330 330 330 331 330 329 330 331 331 331 331 331 331 330 331 331 331 331 330 329 329 327 326 325 324 326 327 326 325 326 328 328 325 324 323 323 323 322 322 321 321 322 322 321 320
316 316 316 317 318 318 318 318 318 317 318 319 320 320 321 322 323 324 324 325 325 324 324 325 326 327 327 327 327 327 327 327 328 328 329 329 329 330 330 330 331 330 330 331 331 330 329 330 330 331 331 331 331 330 330 331 331 331 331 330 330 329 328 327 326 325 326 327 325 325 326 328 327 326 325 324 323 323 323 323 322 322 321 321 319
313 313 313 314 315 315 315 314 314 315 316 317 317 318 318 319 319 320 320 321 321 321 322 322 323 325 325 326 327 328 328 328 328 328 329 329 329 330 330 330 330 330 330 330 331 330 330 330 329 329 330 330 330 330 330 330 330 331 332 331 330 329 329 328 328 327 326 327 326 324 325 326 327 327 326 325 323 323 324 324 322 320 321 320 318
311 311 311 312 312 313 312 312 312 313 315 315 316 316 316 316 317 317 317 317 318 318 319 319 320 321 322 324 325 327 328 328 328 328 328 328 329 329 329 330 331 331 330 330 331 331 330 330 330 329 329 329 329 330 330 330 330 330 331 331 331 330 329 329 329 328 327 327 327 325 324 324 324 326 326 325 324 323 324 323 321 320 320 320 318
310 309 309 310 311 311 310 310 310 311 312 313 313 314 314 314 314 314 314 315 315 316 316 316 317 317 318 320 321 323 326 328 328 328 328 328 328 329 329 329 330 330 330 331 331 330 330 330 330 329 329 329 329 329 330 330 330 330 330 331 331 330 330 329 329 329 328 328 328 327 325 324 323 324 326 326 325 324 324 323 322 320 319 318 317
308 308 308 308 308 309 308 307 307 307 307 308 308 308 309 309 309 309 310 310 311 311 311 312 313 313 314 315 316 318 321 323 325 327 327 328 328 328 328 329 329 330 331 331 330 330 330 330 330 329 328 328 329 329 329 329 330 330 330 330 330 331 330 330 330 329 329 329 329 328 326 325 324 323 325 326 326 325 324 323 322 320 318 317 316
307 306 306 306 306 307 306 305 304 303 303 303 303 304 305 305 305 305 305 305 306 307 308 308 309 310 311 312 313 314 316 317 319 322 324 325 327 328 328 328 328 329 330 330 330 330 330 330 330 329 329 329 329 329 329 329 329 330 330 330 330 331 331 331 330 329 329 329 329 329 327 327 325 323 323 325 326 325 324 323 322 320 318 317 317
305 305 305 304 304 304 304 303 302 302 302 302 302 302 302 302 303 304 303 303 304 305 306 307 307 308 309 310 311 311 313 313 314 317 318 320 323 325 327 328 328 328 328 329 330 330 330 329 330 330 329 328 328 328 329 329 329 329 330 330 330 331 330 331 331 330 329 329 330 330 328 327 326 324 323 323 325 326 325 324 322 321 319 317 317
304 304 303 303 303 303 302 302 301 301 300 300 300 301 301 301 301 302 302 303 304 305 305 306 307 307 307 308 309 310 310 311 312 313 314 316 317 320 323 325 326 328 328 328 329 329 329 329 329 329 329 329 328 328 329 329 330 329 329 330 330 331 330 330 331 331 330 329 329 330 329 327 327 326 324 322 323 325 325 324 323 321 320 318 318
303 303 302 302 302 302 302 301 300 300 300 299 299 300 300 300 300 301 301 302 303 304 304 305 306 306 306 307 308 309 309 309 310 311 312 313 314 316 318 320 322 324 327 328 329 328 328 328 329 329 329 330 329 328 328 329 329 329 329 330 330 331 330 330 330 331 330 329 329 330 329 328 327 327 325 322 321 324 325 324 323 322 321 319 318
303 302 302 301 301 301 301 300 299 299 299 299 298 299 299 299 300 300 301 301 302 303 304 304 305 305 306 306 307 307 308 308 309 309 310 311 312 313 315 316 318 319 321 324 327 328 328 328 328 328 329 329 329 329 328 329 329 329 329 329 329 330 330 330 330 330 330 330 330 330 330 329 328 327 327 323 320 322 325 325 323 323 322 320 318
301 301 300 300 300 300 300 299 299 298 298 298 298 298 298 299 299 300 300 301 301 302 303 303 304 304 305 306 306 306 307 307 308 308 309 310 310 311 312 313 315 316 317 319 321 324 327 329 328 328 329 329 329 329 329 329 329 329 329 329 329 330 330 330 330 329 330 330 330 330 330 329 329 327 327 326 321 320 324 325 324 323 322 321 320
299 299 299 299 298 298 299 298 298 298 298 297 297 297 297 298 298 299 299 300 301 301 302 303 303 304 305 305 305 305 306 306 307 307 308 308 308 309 310 311 312 313 314 315 316 317 321 325 328 328 329 329 328 329 329 330 330 329 329 329 329 329 329 329 329 329 329 329 330 330 330 329 329 328 327 327 323 321 322 324 325 324 323 322 321
298 298 298 298 297 298 298 298 298 298 297 297 297 297 297 297 298 298 299 299 300 301 302 303 303 303 304 304 304 304 305 305 306 306 306 306 306 306 307 308 308 309 310 312 313 314 316 319 323 326 329 329 328 328 329 329 330 330 329 329 329 329 328 328 328 328 328 329 329 329 330 329 329 329 327 327 326 322 321 323 325 324 323 322 321
297 297 297 297 297 297 297 297 297 297 297 297 296 296 296 297 297 298 298 299 300 300 301 302 302 303 303 303 303 303 304 304 304 305 304 304 304 304 305 305 305 306 307 309 311 312 314 316 318 322 326 328 329 329 328 329 329 330 330 330 329 328 328 328 328 328 328 328 328 328 329 329 329 329 328 327 327 325 322 322 324 324 323 323 322
297 297 297 296 297 297 297 297 297 297 297 296 296 295 296 296 297 297 298 298 299 300 300 301 301 302 302 302 302 302 303 303 303 303 303 303 303 303 303 303 303 304 305 306 308 309 312 314 316 319 322 326 329 329 328 328 329 329 329 330 330 329 328 328 328 328 328 327 327 327 328 329 329 329 328 327 327 326 323 321 322 323 323 323 322
296 296 296 296 296 296 296 297 297 296 296 295 295 294 295 295 296 297 297 298 298 299 299 300 300 301 301 301 302 302 302 302 301 301 301 301 301 301 301 301 301 302 302 303 305 306 309 312 314 317 320 324 327 329 329 329 329 329 329 329 330 329 328 328 328 328 328 327 327 326 326 327 327 327 327 327 327 326 324 321 321 322 322 323 323
296 296 296 296 296 296 296 296 296 296 296 295 294 294 294 295 295 297 297 297 298 298 299 299 299 300 300 300 301 301 300 300 300 300 300 300 299 299 299 299 299 300 300 301 302 304 306 309 312 315 318 321 325 328 329 329 329 329 328 328 329 328 328 327 327 327 327 327 326 325 325 326 326 325 323 324 326 325 323 321 321 322 322 322 323
296 296 296 296 296 296 296 296 296 296 295 294 294 294 295 295 295 296 297 297 297 298 298 298 298 299 299 299 299 299 299 299 299 299 299 298 298 297 297 297 297 297 298 299 300 302 304 306 309 312 315 318 322 326 328 329 328 328 328 328 328 328 328 327 326 326 326 326 325 324 323 325 324 323 321 321 324 323 321 321 322 322 322 322 322
296 296 296 296 296 296 296 296 296 296 295 293 294 295 295 295 295 295 296 297 297 297 298 298 298 298 298 298 298 298 299 299 299 298 298 297 296 296 296 296 297 297 297 298 299 300 302 304 307 309 313 316 319 322 327 328 328 328 329 328 328 327 326 326 325 325 325 325 325 323 322 323 323 321 321 320 321 322 321 321 321 321 321 321 321
296 295 295 296 296 296 296 296 295 295 294 293 294 294 295 295 295 295 296 296 296 297 297 297 297 297 297 297 297 298 298 298 298 297 296 296 296 296 296 297 299 299 298 298 299 300 301 303 305 307 310 313 316 319 323 327 328 328 328 328 327 327 326 325 325 326 325 324 324 323 322 322 322 321 321 320 320 321 322 321 321 321 321 320 320
295 295 295 296 295 295 295 295 295 295 294 293 293 294 295 295 295 295 296 296 296 296 296 296 296 296 297 297 296 297 297 297 296 296 295 294 295 297 297 298 299 300 300 300 301 301 301 302 302 304 306 310 314 317 321 325 328 329 328 328 327 327 326 325 325 326 325 324 323 323 322 322 321 320 320 320 320 321 322 321 321 321 321 320 320
295 295 295 295 295 295 295 295 295 295 294 293 293 294 294 295 295 295 295 296 295 296 296 295 296 296 296 296 296 296 296 296 295 295 294 293 294 296 297 298 299 300 301 301 303 304 304 303 302 302 304 306 309 313 318 323 327 328 328 327 327 326 325 325 325 326 325 324 323 323 322 323 321 319 320 320 320 321 321 321 321 322 321 320 320
295 295 295 295 295 295 295 295 295 295 293 292 293 293 294 294 294 295 295 295 295 295 295 295 295 296 295 295 295 295 295 295 294 294 293 293 293 295 296 297 298 299 300 301 303 304 305 304 303 303 304 305 306 308 313 319 324 326 327 327 326 326 325 325 325 325 324 323 323 322 322 323 321 320 320 320 320 321 320 320 321 321 322 321 320
295 295 295 295 295 295 295 294 294 295 294 292 292 293 293 294 294 295 295 295 295 295 295 295 295 295 295 295 295 294 294 294 294 293 293 293 293 294 296 297 297 298 299 300 301 302 303 304 305 305 305 305 305 306 309 315 319 323 324 325 325 324 325 324 323 323 322 322 322 322 322 323 321 320 320 320 320 320 319 319 320 321 321 321 320
295 295 295 295 294 294 294 294 294 294 294 293 292 292 293 293 294 294 294 294 294 294 294 295 295 295 295 295 295 294 293 293 293 293 293 293 293 294 295 296 296 297 298 299 300 302 302 303 305 308 310 309 307 306 308 312 315 318 321 323 324 323 323 323 322 321 321 321 321 321 322 322 321 320 320 319 320 319 318 318 318 319 321 321 320
294 295 295 295 295 294 294 294 294 294 294 293 292 292 292 292 293 294 294 294 294 294 294 294 294 295 295 295 294 293 293 292 293 293 293 293 293 294 295 295 296 297 297 297 299 301 303 304 306 310 314 313 310 308 310 312 315 317 319 321 323 323 322 322 322 322 321 320 320 321 321 321 320 319 317 316 316 317 317 317 316 317 319 320 321
295 294 294 294 295 294 294 294 293 294 294 293 292 292 292 292 292 293 293 293 293 293 293 294 294 294 294 294 294 293 292 292 292 293 293 293 293 293 294 295 295 296 296 297 298 301 302 303 305 307 310 311 310 311 312 314 315 317 318 318 319 321 322 322 321 321 321 319 318 319 320 319 318 317 315 312 311 311 311 314 315 314 315 318 319
Wind_Speed
2 3 5 5 6 6 5 4 4 3 3 3 3 4 4 5 4 3 2 3 6 8 7 7 6 4 3 3 4 6 6 7 7 8 9 9 8 8 7 6 5 5 6 6 6 6 6 6 6 4 6 7 7 7 7 6 6 6 6 6 6 6 5 5 6 5 4 6 7 7 7 8 9 9 9 8 10 11 11 10 8 7 7 7 7
4 4 5 4 4 5 5 6 6 4 3 3 3 4 4 4 5 4 2 2 4 7 7 6 6 6 6 6 6 7 7 8 8 9 10 10 10 10 9 8 6 6 7 7 7 8 7 7 6 4 6 8 7 8 8 7 6 7 7 6 6 6 6 5 6 6 4 5 6 7 7 7 9 10 10 10 11 12 11 9 8 8 8 8 7
6 6 4 4 4 4 5 6 6 5 4 4 4 4 5 5 5 5 4 4 4 6 7 7 7 8 8 9 8 7 7 8 9 10 11 12 12 11 11 10 9 8 8 8 8 9 8 7 8 7 8 8 8 9 9 8 8 8 8 7 7 7 7 6 6 7 5 5 6 6 7 7 9 10 11 12 12 13 11 10 9 8 9 9 8
7 5 3 3 4 4 5 6 6 5 5 4 5 5 5 6 6 5 6 6 6 7 9 9 9 9 9 8 8 8 8 8 9 10 11 12 13 13 13 12 11 10 10 9 9 10 10 9 9 10 10 9 9 10 9 9 9 9 9 8 7 7 8 7 7 7 7 6 5 5 6 7 8 9 11 12 12 13 12 11 10 10 10 10 10
7 7 4 3 3 4 5 8 7 5 5 5 5 6 6 5 6 6 6 7 6 7 9 10 10 9 9 9 10 10 10 9 9 9 11 12 14 15 14 13 13 12 11 11 11 11 12 11 11 11 10 10 11 11 11 10 10 10 9 9 8 8 9 8 8 8 7 6 5 5 6 7 8 9 11 12 12 13 13 12 12 11 11 11 11
7 8 7 6 6 6 6 8 8 7 5 5 5 6 6 5 4 5 6 7 7 7 9 10 10 11 11 12 12 12 11 11 10 10 10 11 14 15 16 15 15 14 13 12 12 13 14 12 12 12 11 12 12 13 13 12 11 10 9 10 9 9 9 8 8 8 8 7 6 6 5 6 7 9 11 12 12 11 11 12 12 12 11 11 11
6 7 7 7 7 6 6 7 8 8 6 5 4 5 5 5 4 4 5 6 7 8 9 10 10 10 11 12 13 13 13 12 12 11 11 11 13 15 17 17 17 17 15 13 13 14 16 14 13 13 13 13 14 14 14 13 12 10 10 11 10 11 10 9 9 8 8 8 7 7 6 6 7 9 10 11 11 10 10 11 11 11 11 11 10
6 7 6 6 6 6 6 7 8 8 7 6 4 4 4 5 5 4 4 5 6 8 11 12 12 12 12 12 12 13 14 14 13 13 13 13 13 15 18 19 19 19 18 16 15 14 16 16 15 15 14 15 16 15 14 14 13 11 11 12 11 12 11 10 10 9 9 9 9 9 8 7 7 8 10 10 11 10 10 11 11 11 11 11 9
7 6 5 4 5 6 6 7 7 6 5 5 4 4 4 5 5 4 5 5 5 6 10 13 14 15 15 15 14 14 14 14 14 14 14 14 15 16 18 20 21 21 20 19 18 16 16 17 17 17 16 16 17 16 15 14 14 13 12 12 12 12 12 12 12 11 11 11 10 10 10 8 7 8 9 10 11 11 11 12 13 12 12 12 12
7 6 5 4 5 5 5 5 5 4 4 4 5 4 4 4 4 5 6 5 4 5 7 10 11 13 15 16 16 15 15 15 16 15 15 16 16 18 19 21 22 22 22 22 21 19 17 15 17 19 18 18 18 17 17 15 15 15 13 13 12 13 13 12 13 12 12 13 11 10 10 10 9 9 9 10 11 11 12 13 14 14 14 15 16
6 6 5 4 4 4 4 4 4 3 4 5 6 5 5 4 4 5 6 5 5 5 7 8 8 10 11 12 13 15 16 17 18 18 18 18 18 19 20 22 23 24 24 24 22 21 19 16 15 18 19 19 19 18 19 17 16 16 15 15 14 13 14 13 13 12 12 14 12 11 11 11 12 11 10 10 12 12 12 13 13 14 16 17 17
7 6 6 4 4 4 4 4 4 4 4 4 5 6 5 5 4 4 5 6 6 6 7 8 8 9 9 9 10 11 14 17 18 19 20 21 21 21 21 22 24 25 26 26 24 23 22 20 17 16 17 18 19 20 21 20 18 18 17 17 17 16 15 14 14 13 13 14 13 11 11 11 13 13 11 11 13 13 13 13 12 13 14 15 16
6 7 7 6 5 5 4 4 4 4 4 4 5 6 6 6 5 5 5 5 6 7 7 8 9 9 9 9 10 11 12 14 15 17 19 20 22 23 23 23 24 25 26 27 26 25 25 24 22 19 17 17 17 19 22 23 21 20 18 18 18 19 18 15 14 14 14 14 14 14 13 13 14 14 13 12 14 14 14 14 13 13 13 14 14
5 5 7 8 7 6 4 4 4 4 5 5 6 7 7 7 7 7 7 6 6 7 7 7 7 8 8 8 9 11 11 12 14 16 16 16 18 23 24 24 24 24 26 27 26 27 27 26 25 23 19 18 17 17 20 23 23 22 20 18 18 19 20 19 16 16 15 14 15 16 15 15 16 15 14 13 14 15 15 15 14 14 14 14 14
8 7 7 7 7 6 6 6 6 6 6 6 7 7 8 8 7 7 8 7 7 7 6 6 7 7 7 7 6 7 7 9 12 14 15 14 15 19 23 24 24 24 25 25 26 27 28 28 27 25 21 20 20 18 18 21 22 23 22 20 18 17 19 21 19 17 17 15 15 17 18 18 18 17 15 14 14 15 17 16 16 16 15 15 15
9 9 7 6 6 5 5 7 7 7 8 8 8 8 8 9 8 8 8 8 7 7 7 7 7 6 6 5 4 5 6 5 7 10 13 14 14 15 17 21 24 24 22 23 26 28 29 29 29 28 26 24 23 21 20 20 21 23 24 21 18 17 17 20 22 20 18 18 16 17 19 20 19 18 16 14 15 16 18 17 17 17 16 16 16
7 7 6 5 4 4 4 5 6 7 8 8 8 8 8 8 8 8 7 8 8 8 8 8 7 7 7 6 4 5 5 6 7 9 9 11 13 13 14 18 21 21 19 20 24 25 27 30 30 29 29 28 26 25 23 22 21 22 24 22 20 19 18 17 20 22 20 20 19 17 19 21 20 20 18 16 16 17 19 19 18 18 17 17 16
6 6 5 4 4 4 4 6 7 7 7 8 8 8 8 8 8 8 8 8 10 10 11 10 8 8 9 9 9 8 8 8 7 6 7 10 12 12 14 15 16 16 17 18 18 19 21 26 31 30 30 31 29 28 27 25 24 23 24 24 22 20 19 17 18 23 23 22 21 19 19 21 21 21 20 18 17 18 19 20 19 18 17 17 16
8 8 6 6 5 5 5 7 7 7 7 9 9 10 10 9 8 9 9 9 10 11 11 10 9 9 9 11 12 13 14 12 8 7 8 9 10 10 11 12 12 13 15 16 16 15 16 20 26 27 28 32 32 30 29 27 26 26 26 26 25 22 20 19 19 22 24 23 23 21 20 21 23 23 22 20 19 19 20 21 20 19 18 16 15
10 9 8 8 7 6 7 7 6 7 7 8 9 10 10 10 9 9 10 10 9 10 11 11 11 10 10 11 12 13 15 15 14 12 8 7 9 10 11 11 12 13 14 14 15 15 15 16 18 19 24 31 34 32 30 28 26 27 28 28 28 25 22 21 20 20 23 23 23 23 21 22 23 24 24 22 21 20 21 21 21 19 18 17 16
10 9 9 9 8 7 8 7 7 8 8 9 9 9 9 8 10 11 11 11 10 10 11 12 12 13 13 12 12 13 15 15 15 14 11 9 9 10 11 10 12 14 15 15 15 15 17 17 17 18 22 26 31 33 32 28 24 24 27 28 29 28 25 23 21 21 23 24 24 24 23 22 23 24 25 24 23 22 21 21 22 20 19 18 16
9 9 9 8 7 8 9 9 10 9 10 11 12 11 10 7 8 12 12 10 11 11 12 13 13 14 16 15 13 11 10 10 11 12 12 11 9 9 12 12 11 14 15 15 16 16 18 19 19 21 21 22 26 30 33 32 28 26 27 29 28 28 27 26 24 22 23 26 26 26 25 24 23 24 24 24 24 24 23 22 22 21 20 18 17
9 9 8 7 8 9 9 9 10 9 10 12 14 14 13 11 10 12 12 10 11 13 13 14 13 14 15 15 14 12 10 10 11 12 11 10 8 9 13 15 15 16 16 16 18 18 18 19 20 21 20 19 21 24 29 34 34 32 31 30 29 28 28 28 26 24 24 27 28 27 27 26 24 24 25 25 25 25 25 23 22 22 21 19 17
9 10 9 9 9 9 8 8 9 10 10 11 11 11 11 12 12 11 10 9 12 15 16 15 15 16 15 14 15 15 14 13 14 15 14 13 11 10 13 14 13 16 17 15 18 21 21 19 18 18 17 16 18 19 22 28 31 33 34 33 31 29 28 28 28 27 25 27 29 29 28 27 26 26 26 26 26 26 26 25 23 23 21 20 18
9 10 10 9 9 9 9 9 11 12 12 11 10 10 10 11 11 10 10 10 12 14 15 15 15 16 16 16 15 15 15 14 15 16 16 15 13 11 14 14 12 15 16 14 15 18 21 21 19 19 18 16 17 16 18 21 24 29 34 35 33 32 30 29 29 29 27 27 30 31 29 29 28 27 27 27 27 27 26 26 25 24 23 22 20
9 9 9 9 8 9 9 11 13 13 12 12 13 13 13 12 12 13 13 12 12 13 14 14 14 15 15 16 16 15 15 15 15 15 15 16 15 12 12 12 12 15 16 14 14 14 17 20 21 23 23 22 22 20 19 19 19 25 32 34 35 34 32 31 30 30 30 29 31 33 32 30 30 29 29 28 28 28 27 27 27 25 24 24 23
8 9 9 9 8 8 9 11 14 14 13 14 14 15 16 16 16 17 16 15 15 15 15 15 15 15 15 15 16 16 15 15 15 16 16 16 17 16 13 10 9 10 11 12 13 15 17 17 19 23 25 26 26 25 24 22 20 22 28 33 36 36 33 31 31 31 32 32 32 34 34 33 32 31 30 30 29 29 29 29 29 27 26 27 25
8 9 10 9 9 9 9 11 14 14 14 14 13 13 14 14 15 16 16 16 16 16 16 16 16 16 15 15 16 16 15 15 15 16 17 17 17 17 15 12 9 7 8 10 10 13 16 16 16 21 25 27 28 28 27 26 24 23 25 29 33 36 34 32 32 32 33 33 34 35 37 36 34 33 32 32 31 31 31 30 30 29 29 30 28
9 10 10 10 10 10 10 13 14 13 13 13 12 13 12 11 12 12 14 14 13 13 13 14 14 14 14 15 15 16 16 16 16 16 17 18 17 17 17 16 13 8 6 7 9 10 13 14 15 19 23 24 25 27 28 29 28 25 23 24 27 33 36 34 34 34 34 34 35 36 38 38 37 35 34 34 33 33 33 32 32 31 31 32 30
11 11 11 12 12 12 12 14 14 14 14 13 13 13 12 12 12 12 13 13 12 11 12 12 12 12 13 14 14 15 15 16 17 18 19 19 18 19 18 18 18 14 9 8 10 13 14 14 16 19 21 21 21 24 27 29 29 26 25 23 21 26 34 36 36 36 35 36 36 37 38 39 39 37 36 36 35 35 34 33 33 33 32 32 31
13 13 13 13 14 14 14 14 15 17 17 15 15 15 13 12 13 12 13 14 13 12 12 12 12 12 14 14 13 14 15 16 17 17 19 19 19 19 19 18 19 19 17 13 10 12 14 15 17 19 21 22 21 21 24 27 27 28 29 27 22 23 30 35 37 37 37 38 38 37 39 40 41 40 39 38 37 37 36 36 35 35 34 32 30
13 13 14 14 14 14 14 15 16 17 18 18 18 16 14 13 13 13 14 14 14 13 13 13 13 14 15 15 15 15 15 17 17 17 17 18 19 20 20 20 20 20 20 16 11 13 18 20 21 21 21 22 22 22 23 24 25 28 31 31 26 24 26 30 35 38 39 39 39 39 39 40 42 42 41 40 39 38 38 38 38 37 36 33 31
13 13 13 13 14 14 14 16 17 18 19 20 20 18 15 15 14 13 14 14 14 14 14 15 15 15 16 16 17 17 17 17 17 17 18 18 19 19 20 21 23 22 21 18 14 15 20 21 22 23 22 21 22 24 25 25 25 27 30 31 28 25 26 26 28 35 40 40 38 38 40 41 42 43 43 42 40 40 40 40 40 39 37 35 33
13 14 14 14 14 15 15 15 17 18 19 20 21 19 17 17 16 15 14 14 14 14 15 15 16 16 16 17 18 18 18 17 18 18 18 18 19 19 19 20 22 24 24 22 19 17 19 21 23 24 22 20 22 25 26 27 28 28 30 32 31 29 28 25 24 27 35 39 39 39 41 42 43 44 45 44 42 41 41 41 41 40 39 37 34
14 14 15 15 15 15 15 16 17 18 19 20 21 20 18 18 18 16 16 15 14 15 15 15 16 16 17 17 18 19 18 18 18 18 18 19 19 20 20 20 21 23 23 23 23 20 21 24 25 24 22 21 22 23 23 25 26 27 29 32 33 31 28 24 23 23 28 36 39 41 42 42 44 45 46 46 44 43 43 43 42 41 41 39 35
18 16 16 17 17 17 16 17 17 18 19 19 20 20 19 18 18 17 17 15 14 14 15 15 15 16 17 18 18 19 19 19 19 18 18 19 20 21 21 21 21 22 22 22 24 24 23 24 25 25 24 23 23 22 21 21 24 27 29 30 31 33 31 28 25 24 26 32 37 41 43 44 44 46 47 48 47 45 45 44 43 42 42 42 38
21 19 19 20 20 18 17 17 18 18 19 20 20 20 20 19 17 17 17 15 14 14 14 14 16 16 17 17 18 18 19 19 19 19 19 20 21 20 21 22 21 22 23 22 23 25 24 23 25 25 23 24 25 25 23 21 22 23 26 28 30 31 33 34 32 30 29 31 34 37 42 45 45 46 48 50 49 47 46 45 45 44 43 43 40
22 21 21 21 20 19 18 18 18 18 20 21 21 21 21 20 18 17 17 16 15 14 14 14 16 16 17 17 17 17 18 18 19 20 21 21 21 20 22 23 23 23 23 23 23 23 23 23 25 25 24 24 25 25 25 23 22 22 21 24 29 31 33 34 34 33 32 32 34 35 39 45 47 48 49 50 50 49 48 47 46 45 44 44 42
22 21 21 21 21 20 18 18 18 19 20 22 22 22 22 20 18 17 17 16 16 15 15 15 16 16 17 17 17 17 17 18 19 20 20 21 21 22 23 24 24 24 24 23 23 22 23 24 24 24 24 25 24 25 25 23 22 24 22 20 24 30 32 33 34 34 32 33 35 36 37 42 47 50 50 50 51 51 50 49 48 47 46 45 44
21 21 20 20 19 19 18 17 17 18 20 22 24 25 23 20 17 16 16 16 16 16 16 17 16 16 17 17 17 17 18 18 19 19 20 22 23 24 24 24 24 25 25 24 24 22 22 23 24 23 23 23 23 25 25 21 20 24 26 23 22 25 28 30 34 36 34 34 35 36 36 39 45 50 51 51 53 52 51 50 50 49 48 46 45
22 21 20 18 18 18 17 17 17 18 19 23 27 29 27 23 18 15 16 16 16 17 17 18 17 16 17 18 18 19 20 19 20 21 22 24 24 24 25 26 26 26 26 25 24 23 21 21 23 24 22 21 21 22 22 21 22 24 26 25 23 25 27 28 33 37 36 35 36 36 36 39 44 49 50 52 54 53 52 51 51 50 49 47 45
22 21 19 18 17 17 17 17 17 18 19 24 29 29 29 27 20 15 16 17 16 17 18 19 19 18 18 19 20 21 21 20 22 24 25 25 25 26 28 29 28 28 28 27 26 24 22 21 22 22 21 21 22 22 22 24 27 25 24 24 24 26 27 24 27 33 36 35 34 33 35 38 43 45 47 51 55 54 53 53 53 52 51 49 47
23 22 20 18 17 17 17 17 17 17 20 26 30 29 30 30 23 16 16 18 18 18 19 19 19 19 20 21 21 22 22 23 25 26 26 28 31 33 33 33 31 29 28 28 28 27 24 22 23 23 22 23 25 24 24 26 28 25 25 26 25 26 24 18 15 22 31 35 33 30 31 35 40 44 46 48 51 54 55 55 54 54 53 51 48
22 23 22 19 17 17 16 17 17 16 20 27 31 30 31 31 25 17 16 19 20 20 20 19 18 19 20 21 21 21 22 24 26 25 27 32 37 38 37 35 33 30 27 27 29 30 28 25 24 25 25 26 28 27 26 26 26 25 25 25 26 27 25 19 16 18 26 34 35 29 28 32 37 42 46 46 47 50 54 56 56 56 55 53 50
22 23 22 19 17 17 16 16 17 16 21 28 31 31 32 32 28 20 17 20 21 20 20 19 18 19 20 21 22 23 24 25 24 25 29 35 38 38 36 33 30 30 29 28 28 30 32 31 28 29 30 29 29 29 27 25 23 23 24 24 27 30 27 22 23 24 25 31 36 30 27 31 35 38 44 46 45 49 54 56 56 56 55 54 51
21 22 21 19 18 17 16 16 15 17 24 30 30 30 32 32 29 22 18 20 20 20 19 18 18 19 19 21 23 24 26 25 25 28 33 36 36 35 33 30 29 29 30 29 27 27 30 32 32 35 37 35 33 34 31 26 24 24 25 25 27 31 30 27 29 29 26 30 36 29 22 27 33 36 41 44 43 46 51 54 57 57 55 54 52
20 19 19 19 19 18 17 17 16 17 24 30 31 30 31 32 28 21 17 19 20 19 18 18 19 18 18 20 22 24 26 27 28 33 37 35 33 31 29 30 30 30 29 28 26 26 29 32 33 36 40 40 38 37 34 30 27 25 24 27 29 31 33 31 29 25 22 28 35 28 18 23 31 34 37 42 41 42 46 50 55 57 56 54 52
20 18 18 19 19 19 17 17 16 16 22 29 31 30 32 32 26 20 18 19 20 19 18 19 19 18 19 21 21 22 25 28 32 36 37 35 32 29 29 30 31 31 30 28 27 28 31 34 35 35 39 41 40 38 35 33 32 28 25 26 27 27 28 24 19 18 20 25 32 32 23 21 29 32 32 36 39 39 41 46 52 56 57 55 52
20 19 18 17 18 19 18 18 17 16 20 28 32 31 32 31 24 19 19 19 20 19 19 19 20 19 20 22 23 24 26 30 35 37 37 35 32 29 29 31 32 31 30 30 31 32 32 33 33 31 33 37 37 35 34 34 35 34 31 28 24 23 22 15 10 15 21 24 31 36 28 19 25 31 28 28 34 37 37 41 49 55 57 56 52
20 19 17 16 17 18 19 19 18 16 18 25 31 31 31 32 25 19 20 20 19 19 20 20 21 20 21 22 24 28 31 33 36 37 37 36 32 29 29 31 32 30 31 34 37 37 34 30 26 22 22 24 28 30 31 31 32 34 35 31 25 22 20 15 12 14 19 23 31 35 27 19 22 28 24 20 23 29 33 37 43 50 54 54 53
19 18 17 17 16 17 19 19 19 18 18 23 30 31 30 32 27 20 20 20 19 19 21 22 22 22 23 23 25 32 36 37 37 37 37 37 33 30 30 31 31 32 35 38 37 34 31 28 23 18 14 11 13 19 23 24 25 28 31 30 26 24 22 20 19 15 11 15 27 34 27 19 21 27 25 15 8 12 23 31 38 44 48 50 50
Wind_Direction
347 339 339 346 351 359 8 4 2 348 345 351 350 343 316 299 303 331 339 232 209 204 205 213 228 255 277 291 312 316 310 298 289 278 270 269 263 265 261 240 230 214 215 219 210 229 229 209 226 228 187 179 177 173 174 183 179 168 165 161 158 149 143 146 134 127 142 149 136 126 125 121 113 103 103 119 137 149 147 135 130 125 117 115 114
345 332 324 323 331 345 356 357 356 343 334 328 324 337 332 312 296 298 309 248 217 216 219 224 240 267 289 300 309 313 312 304 293 278 266 263 261 263 265 255 240 225 225 223 216 230 228 212 233 236 191 185 186 182 179 188 188 175 174 170 163 156 154 152 139 135 154 168 151 131 128 126 115 102 104 118 134 148 152 145 139 130 124 123 122
344 336 319 311 317 325 337 343 345 337 331 324 308 312 317 320 309 292 283 262 234 228 230 235 244 261 284 300 306 304 307 308 299 285 268 259 256 257 262 260 251 238 232 233 227 225 220 215 223 220 209 200 195 189 181 188 193 183 182 175 167 164 162 161 151 145 156 172 160 141 134 130 122 108 109 124 138 145 145 143 138 129 124 120 117
343 341 326 319 323 328 340 347 346 334 324 320 313 310 305 306 307 293 283 276 262 249 246 251 251 256 275 294 302 302 305 306 302 294 279 263 254 251 254 257 255 250 242 239 238 228 218 216 221 218 213 209 203 195 186 192 195 190 187 181 173 166 164 167 163 157 160 165 160 150 142 136 130 117 115 127 139 140 136 137 134 128 127 124 120
358 357 352 347 344 347 351 354 355 345 327 320 314 313 309 299 295 291 288 288 285 272 264 265 263 266 281 294 298 299 302 302 300 297 287 271 257 250 249 251 252 252 250 245 243 234 223 217 218 218 214 213 212 201 195 197 195 193 192 187 179 170 168 171 170 168 169 168 169 168 153 141 135 125 119 126 137 139 136 136 132 130 131 129 125
11 8 6 3 2 0 357 354 350 348 337 321 319 321 322 312 298 292 291 289 289 286 280 276 274 276 284 293 296 296 295 296 296 292 286 275 261 251 247 248 248 247 248 249 246 238 231 224 216 216 214 213 218 209 201 198 196 196 194 191 187 179 176 176 177 177 177 175 176 180 165 148 141 135 129 129 137 140 140 139 137 137 135 130 127
16 16 15 10 10 7 3 357 347 348 343 324 322 325 325 326 317 304 294 287 283 285 284 282 283 283 285 290 292 291 291 291 289 284 277 270 261 251 246 246 247 245 243 243 245 240 235 232 221 217 214 213 219 212 203 203 205 205 197 194 191 183 179 180 184 182 179 180 181 183 177 166 156 145 140 139 143 147 148 146 145 146 141 135 132
19 19 21 16 13 9 4 2 358 357 348 337 337 331 324 322 315 307 295 285 281 281 278 276 277 280 282 285 285 284 285 285 280 275 271 266 259 251 246 245 245 246 245 239 239 240 237 236 230 224 218 214 220 216 207 206 209 209 200 196 193 187 183 181 184 185 182 181 183 188 184 182 176 159 149 147 147 147 148 148 148 150 148 143 141
23 20 21 20 13 9 5 359 2 5 353 349 348 343 336 321 311 308 301 284 278 277 274 271 269 270 272 271 272 274 276 277 273 270 269 265 258 253 248 245 245 245 246 243 239 238 238 239 237 233 225 220 223 219 212 211 211 211 206 200 196 190 187 184 184 186 187 182 183 194 187 185 187 172 160 153 150 146 143 144 145 146 145 142 138
34 30 22 19 12 10 13 2 360 5 0 357 352 351 348 333 320 314 313 295 275 274 276 275 271 269 268 265 263 263 266 269 268 266 266 263 260 257 253 248 247 245 245 244 243 240 239 240 241 240 233 227 229 222 214 215 213 212 212 208 202 195 190 189 187 185 191 186 184 198 191 186 189 182 175 164 156 153 147 145 144 141 139 138 134
44 41 30 22 14 6 12 8 0 3 0 358 355 350 341 337 333 319 317 304 279 274 274 275 274 272 270 268 265 263 265 267 266 264 262 261 259 258 256 252 249 246 245 244 244 243 241 238 239 241 238 232 232 225 217 217 216 213 214 212 207 202 195 193 192 187 191 188 186 203 200 189 188 187 189 177 166 162 155 150 147 142 140 141 138
52 42 39 30 15 1 359 354 351 359 358 349 350 345 333 330 331 318 313 304 291 284 274 270 273 274 272 271 270 269 268 267 267 265 262 259 257 256 256 255 253 248 245 243 243 244 242 240 237 238 241 238 236 229 220 217 219 214 216 218 211 206 201 198 198 192 191 189 186 200 204 193 187 188 193 184 175 170 161 156 152 148 146 145 143
48 35 33 23 11 4 355 346 343 348 338 324 335 341 335 328 328 325 321 310 299 293 285 277 275 276 278 274 269 269 268 265 262 262 262 260 258 258 257 256 255 251 246 243 241 242 242 242 241 237 237 238 236 231 224 220 222 219 217 221 215 210 207 202 202 199 196 190 185 194 200 192 185 187 192 187 182 178 167 163 160 155 152 149 147
61 49 29 12 6 7 360 350 337 326 322 319 329 332 328 327 326 327 330 326 315 303 292 282 273 275 284 286 278 273 268 263 260 258 258 258 255 258 259 256 255 253 250 245 242 244 244 243 244 242 237 236 233 229 226 223 224 223 219 222 221 216 213 207 204 203 200 191 186 193 195 188 185 187 193 190 186 182 172 168 165 159 158 155 152
52 45 27 11 8 12 9 1 349 335 329 327 328 324 322 323 319 318 322 323 327 321 303 286 280 284 285 284 288 286 274 263 260 259 257 257 255 256 258 257 255 255 253 248 245 244 245 245 245 245 241 239 235 229 225 223 223 225 223 223 224 223 220 212 206 205 204 196 189 191 191 187 186 186 189 190 188 184 177 172 168 163 161 160 157
32 22 18 15 13 18 13 5 0 351 342 333 326 324 325 324 318 314 310 305 313 322 313 295 281 281 279 275 288 288 279 278 278 273 267 261 255 252 254 256 257 255 251 250 248 243 242 244 244 243 243 243 240 234 229 224 222 226 227 225 223 224 225 216 208 206 204 200 194 192 192 190 188 184 185 189 188 184 179 174 170 166 165 163 162
39 24 21 20 16 16 13 9 5 355 348 340 329 325 323 320 317 313 307 300 302 305 300 290 276 272 274 275 283 279 284 313 308 287 271 258 254 254 253 254 255 251 247 248 250 245 241 243 245 243 242 244 244 239 234 229 224 225 228 228 223 222 225 222 212 207 205 202 197 194 194 194 190 184 184 188 186 183 180 176 172 170 170 168 165
65 43 28 27 23 17 17 10 2 355 353 349 343 340 336 334 330 322 317 309 305 304 294 284 275 270 273 273 274 277 286 304 304 290 280 264 259 259 256 254 252 247 245 245 247 246 242 243 248 247 242 242 245 244 239 234 228 224 227 228 225 222 224 226 217 207 207 206 200 196 195 196 191 185 187 188 185 184 180 178 177 174 172 170 168
74 56 37 32 27 19 21 12 2 358 352 349 351 354 352 348 340 328 321 314 311 313 307 299 287 272 271 270 267 270 276 280 282 290 296 278 262 262 260 256 252 246 245 244 243 244 244 243 247 248 242 240 243 246 243 239 234 230 228 228 229 226 222 224 222 212 209 207 202 198 197 196 191 188 190 189 187 187 184 182 182 179 175 172 171
67 56 41 28 22 22 27 21 16 9 356 354 355 353 350 344 340 335 326 319 318 316 314 314 305 293 287 275 269 272 270 268 268 271 283 287 280 276 271 265 261 255 248 246 245 241 242 243 241 240 238 238 241 243 243 241 239 237 233 230 232 231 226 224 225 219 214 209 204 201 199 197 194 192 192 191 189 189 188 187 187 184 179 177 177
55 49 34 17 12 24 35 33 29 21 11 11 5 353 346 338 336 331 320 315 319 317 312 313 307 303 303 293 287 285 273 266 264 261 262 272 281 284 282 277 271 266 256 250 248 244 244 245 242 239 236 238 241 241 241 240 238 238 237 234 233 232 229 226 225 223 217 211 207 204 201 199 197 196 196 194 191 190 190 191 192 188 184 184 183
41 39 32 18 18 33 39 35 27 18 13 9 360 352 350 351 342 325 316 314 319 319 312 310 308 304 307 303 298 294 283 274 268 263 261 259 265 279 284 284 282 279 272 263 257 251 248 245 244 245 241 240 244 242 242 242 239 238 238 236 233 232 231 228 225 223 216 212 211 206 202 201 199 198 199 197 195 192 190 194 195 191 189 189 187
34 35 37 34 33 33 28 21 15 9 8 0 347 343 345 347 339 320 320 326 326 325 317 313 312 306 307 306 301 297 291 286 283 278 272 265 270 278 280 284 286 283 279 276 273 266 258 251 249 250 246 244 246 243 243 245 244 241 240 238 235 232 231 230 227 223 217 213 214 209 202 202 200 198 200 199 198 196 191 194 197 194 193 192 188
31 31 34 34 32 29 20 15 15 15 17 6 346 340 342 341 331 317 327 338 329 326 323 318 315 309 308 308 304 301 294 290 291 288 281 275 276 278 281 285 285 281 280 279 281 277 266 255 250 247 245 245 245 242 241 245 244 243 241 240 237 234 231 230 227 224 219 214 214 211 205 203 200 199 201 200 201 200 194 192 196 196 195 193 191
28 26 25 26 29 31 26 23 24 21 21 14 358 354 356 349 337 325 333 338 325 321 321 319 316 311 309 307 304 302 300 299 294 288 285 283 280 280 285 286 281 282 284 277 275 280 272 260 251 246 244 244 245 242 239 240 241 242 242 240 239 235 230 229 227 223 220 215 213 212 208 206 202 200 202 202 202 203 197 192 194 196 194 193 194
27 24 19 20 27 29 24 20 18 14 8 4 357 354 354 350 343 339 339 337 330 327 325 320 316 313 312 312 308 302 300 301 296 289 286 284 280 280 286 286 278 277 280 272 262 267 271 266 261 255 251 249 249 247 243 241 240 241 241 239 239 237 231 227 226 223 221 217 213 211 210 209 207 203 203 203 203 204 201 196 196 197 195 196 200
27 26 21 21 26 26 21 14 8 2 357 352 346 341 340 338 335 335 336 334 331 330 326 322 320 318 316 314 313 308 302 300 298 295 293 288 284 283 285 286 280 275 276 271 258 254 259 263 263 260 256 254 252 250 249 246 242 242 243 240 239 240 236 229 226 223 221 218 214 212 212 213 211 206 204 205 204 204 202 199 200 198 195 202 209
27 25 23 23 25 23 20 13 7 2 0 359 355 349 345 342 339 336 335 334 331 327 324 321 321 321 319 316 315 312 307 303 300 297 295 292 288 286 284 283 284 285 282 276 264 257 256 254 258 263 261 258 256 253 250 248 246 245 245 242 239 241 241 234 229 224 221 220 217 213 213 215 214 210 207 206 204 204 203 201 202 199 197 205 212
31 27 26 26 27 27 24 20 18 16 15 15 15 14 11 7 3 358 353 348 342 336 331 327 325 324 323 322 320 314 309 307 305 299 294 290 285 283 285 286 286 288 285 281 279 276 265 247 247 263 268 263 259 255 250 247 247 244 243 242 237 238 240 236 231 227 222 220 219 216 214 215 217 214 210 208 205 205 205 203 203 202 203 207 211
37 34 34 34 34 35 32 28 27 27 24 21 18 18 18 14 10 8 4 0 354 348 345 341 337 336 332 329 327 322 316 315 310 303 300 298 292 286 284 285 285 282 281 285 280 278 276 260 246 256 266 264 261 261 254 250 249 244 241 240 234 234 237 235 233 230 224 221 219 218 215 215 217 216 213 210 207 206 207 205 204 204 208 210 211
42 40 40 40 40 39 35 29 28 28 24 22 19 17 15 12 9 7 3 360 355 350 348 346 343 342 342 339 336 331 325 324 320 312 307 306 303 295 288 283 280 276 276 282 281 269 270 273 264 258 261 263 265 264 257 253 252 247 244 243 238 235 235 236 236 232 227 222 219 218 217 215 217 217 215 213 209 208 207 206 206 206 210 212 212
44 43 43 41 39 37 34 29 26 25 22 20 19 17 14 10 6 3 1 358 355 350 348 348 346 343 343 342 340 336 332 329 326 322 316 311 308 302 296 291 284 274 266 266 275 277 273 274 273 268 264 264 263 260 255 254 254 249 245 243 240 238 235 235 237 236 231 225 219 219 218 215 216 217 216 215 212 211 208 206 207 208 210 213 213
45 44 42 40 38 35 34 29 26 24 22 21 19 17 14 9 5 2 359 356 354 350 348 348 348 347 343 341 339 337 335 332 330 327 322 319 315 309 303 301 296 288 277 264 261 272 276 272 269 269 267 262 259 258 253 250 250 248 246 244 240 236 235 234 236 238 236 230 223 221 220 217 216 216 216 216 214 212 210 207 208 209 211 214 214
46 44 41 39 38 36 35 31 27 25 22 20 19 16 12 7 4 1 356 353 351 349 348 347 346 345 343 340 338 338 336 334 331 330 327 325 322 317 312 308 303 299 296 288 278 272 273 271 267 268 267 257 255 258 254 249 249 246 244 244 240 235 234 234 234 237 238 234 227 224 222 218 217 216 216 217 215 212 211 210 209 210 211 213 215
50 47 44 42 41 40 38 32 28 25 21 19 18 15 11 5 2 358 354 352 350 348 346 345 343 342 341 338 338 338 336 333 331 331 330 328 326 322 317 313 309 304 303 302 298 291 283 275 268 266 265 257 254 255 252 249 250 246 243 243 240 235 233 234 232 234 238 237 230 226 224 220 218 217 216 217 216 213 212 211 211 211 211 212 215
56 52 49 47 45 43 39 33 29 26 22 18 15 13 9 4 360 357 353 350 349 349 346 344 342 340 339 337 336 336 334 333 331 331 331 330 328 323 318 316 314 310 308 305 303 301 297 290 278 268 263 260 257 254 249 246 247 246 244 243 240 236 235 235 234 234 239 242 237 230 226 222 218 217 216 216 216 215 213 212 212 212 212 212 215
58 55 52 49 47 43 39 34 30 27 23 19 14 11 7 2 359 356 353 350 348 348 346 345 344 341 339 336 335 335 334 332 330 330 330 329 328 324 321 319 316 312 310 306 303 301 297 293 289 280 269 263 260 257 251 245 243 244 242 240 239 239 237 236 238 239 239 241 241 235 229 225 221 219 217 216 216 215 214 213 213 213 213 213 215
58 55 53 50 47 43 39 34 31 28 24 19 15 10 5 1 358 355 353 351 349 347 346 346 344 342 340 336 334 335 334 332 330 329 328 326 326 323 320 319 317 313 310 306 304 301 293 288 287 285 279 270 261 256 253 246 241 242 241 236 237 238 236 233 235 238 236 236 239 237 232 228 223 220 218 216 215 215 215 214 214 214 214 214 215
56 54 52 49 45 42 39 35 32 29 24 19 15 10 5 0 357 354 353 351 350 348 345 344 343 342 340 337 336 336 335 332 330 328 327 326 324 320 317 316 314 312 310 307 305 301 295 290 285 281 280 274 263 255 254 247 239 242 242 236 232 232 231 229 230 233 232 231 236 238 235 232 226 221 219 217 216 215 215 214 214 214 215 214 215
54 52 50 47 44 41 38 35 33 29 24 20 16 12 7 2 356 354 353 352 350 348 345 344 343 341 340 338 335 335 334 330 328 327 326 324 321 318 316 315 312 309 307 305 304 300 294 290 286 282 279 274 266 258 253 244 234 235 237 238 235 230 228 227 228 231 229 227 231 233 233 232 227 221 218 216 216 216 215 214 214 215 216 214 215
52 51 50 47 43 40 37 36 34 30 25 20 18 16 12 7 0 355 354 354 351 349 347 345 344 342 341 339 335 333 332 329 328 326 323 320 318 315 313 312 310 306 302 299 298 296 292 288 285 283 278 271 264 257 250 238 234 236 235 234 236 234 231 228 228 230 228 226 227 227 226 228 226 220 215 212 213 214 214 213 212 214 215 215 215
53 52 50 46 42 38 36 35 34 31 24 19 19 20 18 13 7 358 357 357 354 352 350 347 347 346 343 340 336 334 333 333 331 328 323 320 317 313 310 307 302 298 295 293 289 286 285 282 280 279 276 270 262 255 250 242 238 239 233 227 231 234 229 224 226 229 227 224 223 222 224 226 223 217 213 211 211 212 212 211 210 212 214 215 215
51 50 48 45 41 38 36 34 34 30 22 18 20 21 19 18 14 6 2 1 358 356 354 351 349 348 346 344 341 338 337 336 333 329 326 323 320 317 314 309 303 295 287 282 280 278 276 273 272 271 269 267 263 258 254 246 237 233 231 227 228 229 222 213 219 226 223 220 218 218 221 223 220 216 213 211 209 209 210 210 210 211 213 213 214
48 47 46 43 39 37 35 34 33 29 19 18 20 20 18 19 20 17 8 6 3 358 355 353 351 348 345 343 341 338 337 334 333 332 330 327 325 322 318 315 312 304 292 281 276 273 270 268 268 267 264 264 264 259 252 246 239 235 234 229 225 224 219 209 211 222 222 218 215 215 219 220 218 215 213 211 209 208 209 211 211 211 212 213 213
48 47 45 42 39 37 35 33 33 27 19 18 20 20 18 19 23 23 13 8 7 0 357 355 351 348 345 343 341 337 335 335 335 335 333 331 328 325 321 318 314 309 304 295 285 277 271 265 263 263 262 261 261 258 252 248 243 235 229 226 225 227 223 212 212 222 224 216 210 211 219 220 214 211 212 213 212 210 210 211 211 211 211 213 213
46 45 42 40 38 36 33 31 31 25 20 20 20 19 17 18 22 23 13 8 7 1 358 357 351 348 345 343 342 339 338 338 338 338 337 334 330 326 320 316 312 310 308 304 298 290 280 269 261 261 264 263 259 257 255 251 247 239 229 225 227 229 227 224 224 225 224 219 212 209 217 220 212 207 211 214 213 211 211 211 209 210 211 213 213
45 43 41 38 35 34 32 29 30 25 20 21 22 19 16 17 21 19 10 7 5 360 358 358 353 349 347 346 344 342 341 341 340 342 342 338 332 325 319 314 314 312 308 305 302 298 292 282 271 265 267 267 262 257 254 250 249 248 240 234 234 234 233 234 232 225 221 220 214 207 213 218 210 206 211 213 211 210 211 210 208 209 210 212 212
46 43 41 38 34 33 30 27 29 26 20 21 23 20 17 17 18 14 8 5 3 359 358 357 354 352 351 350 348 345 343 343 344 347 349 345 336 329 324 319 318 316 312 309 307 303 300 296 287 276 270 267 264 258 252 247 246 251 255 251 244 238 235 232 225 215 215 218 213 209 215 218 208 206 211 212 210 209 208 208 207 207 208 209 210
45 42 41 39 36 34 31 28 28 27 20 21 24 22 19 19 17 10 6 5 2 359 357 356 355 353 352 353 354 352 347 346 349 352 354 351 342 334 331 326 324 322 317 317 320 319 314 310 303 292 279 270 263 254 249 247 245 248 256 259 248 235 228 223 211 209 213 215 211 209 215 220 209 205 206 207 207 207 206 206 206 205 207 208 208
44 42 39 38 37 35 33 30 28 27 22 20 24 25 23 22 20 12 7 4 1 359 358 356 356 354 352 353 356 356 353 351 354 357 358 355 346 339 337 333 330 329 327 327 330 329 325 323 320 310 294 277 259 246 244 247 245 243 247 250 246 234 222 215 217 217 214 215 213 208 212 219 208 199 193 188 196 202 202 203 204 202 202 204 207
44 42 40 39 37 34 33 31 29 28 24 20 24 27 26 25 25 18 10 7 3 0 359 356 356 356 354 354 355 356 358 358 359 0 1 360 353 346 344 342 338 335 335 336 334 331 330 335 340 340 333 309 268 246 246 251 250 247 248 250 251 244 232 220 217 218 217 217 213 207 207 211 201 191 184 172 174 200 196 196 200 200 198 199 202